Theta_e
350 348 346 348 353 359 369 365 359 362 356 351 353 355 357 357 358 358 354 354 346 347 348 351 352 347 347 347 343 343 336 340 339 338 337 335 334 336 339 339 350 349 349 350 340 343 338 337 339
349 349 349 357 362 370 366 360 362 359 354 352 355 356 358 360 355 355 353 351 345 345 348 349 350 349 340 340 350 350 345 339 336 334 333 332 332 334 343 348 345 351 352 351 349 339 339 338 336
348 352 356 358 363 366 369 359 356 355 353 353 353 352 354 357 354 353 353 349 346 346 346 347 350 351 345 346 350 349 351 350 336 334 334 336 337 347 352 349 350 341 341 345 344 338 340 338 334
350 355 361 362 366 362 361 356 360 359 357 355 353 357 351 353 352 353 352 348 345 347 347 349 350 352 347 345 351 352 352 351 344 345 344 347 350 351 350 352 351 348 340 344 347 344 338 340 339
347 352 355 358 362 359 357 356 356 358 357 356 354 358 355 352 352 352 351 348 346 348 349 350 350 351 351 348 352 353 353 352 352 352 353 352 352 352 351 351 351 350 349 343 342 346 345 339 338
351 350 356 357 355 353 359 358 357 356 353 352 359 359 357 352 352 352 350 349 349 347 350 351 352 350 351 353 353 352 352 352 350 352 353 353 351 351 347 347 349 349 349 348 343 348 343 346 342
349 350 352 352 352 353 360 356 356 355 351 349 353 361 354 351 351 351 352 351 350 345 347 352 352 353 353 352 352 352 353 352 351 353 352 352 353 352 345 350 350 349 349 345 341 341 343 346 346
341 344 351 351 352 353 352 356 350 351 357 347 348 352 357 351 351 353 354 353 351 348 348 351 352 353 352 351 353 352 352 352 353 353 352 351 352 352 350 348 349 351 349 349 344 348 343 346 349
335 344 345 342 349 350 350 358 356 354 353 352 351 349 348 350 354 353 352 351 352 352 349 347 347 346 345 347 350 351 352 351 352 353 350 349 350 348 349 350 345 350 348 345 341 345 343 344 346
339 336 341 339 336 337 346 354 357 358 357 357 355 345 350 351 353 352 349 348 348 350 346 344 345 343 343 345 349 345 346 345 344 348 347 344 345 348 347 344 342 346 346 348 341 344 347 348 343
336 337 337 340 336 336 342 348 354 356 357 357 355 353 349 349 350 353 350 349 348 344 346 343 343 343 343 344 344 343 343 343 343 345 344 344 346 347 339 345 346 346 347 345 345 341 344 341 341
336 337 336 340 340 337 341 348 354 352 349 351 352 351 349 349 349 352 352 351 350 347 347 346 345 345 349 351 347 344 343 346 347 348 349 347 345 341 344 341 345 344 346 345 342 337 338 338 341
333 333 333 339 338 337 339 350 356 350 350 350 352 353 350 349 348 349 351 351 351 350 351 352 350 349 351 352 353 350 350 350 350 349 348 347 349 348 347 347 347 344 344 346 347 344 344 341 340
332 332 332 334 337 336 341 344 345 349 350 353 353 353 350 350 348 348 349 350 351 351 351 353 352 352 352 352 353 351 350 350 351 349 349 349 349 347 345 346 346 344 346 347 347 346 346 346 346
331 331 331 333 333 335 340 341 350 344 350 353 353 353 348 347 349 348 348 350 350 351 351 352 352 351 353 352 351 352 352 350 350 350 349 351 350 349 348 347 344 344 344 345 345 347 346 346 347
332 332 333 335 333 336 331 331 349 348 347 352 347 346 352 346 348 349 348 349 349 351 351 349 347 351 352 352 350 349 349 351 348 348 350 351 348 350 349 347 348 348 345 342 345 347 347 346 345
330 333 334 336 333 337 333 340 345 340 343 344 344 349 352 350 347 348 349 349 348 349 350 349 348 350 351 350 352 352 351 351 350 349 349 349 348 348 349 345 344 349 349 347 347 347 346 345 346
331 332 331 331 332 339 343 344 343 343 342 344 344 354 355 353 351 346 349 349 349 348 351 350 350 350 351 351 351 352 352 350 349 350 350 349 348 348 349 346 349 349 347 349 349 347 343 342 341
328 326 328 329 331 338 342 341 341 343 344 341 343 353 352 353 350 346 348 349 349 349 351 350 352 352 352 348 350 350 352 350 349 350 349 349 349 347 349 349 350 352 351 351 349 348 347 344 348
325 326 325 329 333 337 341 339 341 341 341 340 344 352 350 349 346 338 345 349 350 350 351 352 353 352 350 350 350 349 351 351 348 349 349 349 348 349 350 350 349 351 352 351 350 350 350 349 347
325 325 324 328 330 332 340 335 339 343 339 338 344 351 346 343 344 340 340 347 350 349 349 350 351 350 351 350 351 351 351 351 350 349 349 350 350 350 349 350 346 350 351 349 348 348 351 350 349
324 324 326 329 327 327 334 333 338 342 339 340 338 348 347 344 343 344 341 343 351 350 349 349 347 346 352 351 351 351 350 351 350 347 346 351 350 349 350 349 350 347 350 347 349 349 349 350 349
323 324 327 328 326 328 334 336 336 342 340 342 341 344 345 344 341 346 349 348 349 351 351 350 351 352 352 352 352 351 351 351 349 348 345 349 350 349 350 349 350 347 348 348 348 349 349 349 349
325 326 323 322 325 328 330 337 335 340 346 345 347 344 341 344 343 346 346 348 348 349 349 345 345 352 353 352 353 352 353 351 350 350 346 349 350 350 350 351 350 351 347 351 352 351 352 352 349
324 321 324 327 329 328 330 337 338 346 343 343 344 344 343 343 344 345 345 347 347 338 338 336 340 344 346 354 352 353 353 351 351 350 347 348 349 349 350 349 349 351 348 349 352 350 352 351 351
324 322 324 330 330 334 340 346 343 344 343 345 345 345 346 344 348 345 343 345 347 344 339 343 344 342 346 349 350 353 352 352 351 351 348 349 349 348 349 348 347 348 348 350 349 351 351 351 353
325 325 322 325 327 337 342 342 345 344 344 343 343 337 338 344 346 345 343 342 342 343 344 346 344 346 345 339 344 353 354 354 352 352 348 349 348 344 349 348 347 350 349 348 349 352 351 352 353
330 327 331 325 332 341 346 347 348 347 340 342 339 337 336 339 344 345 344 343 344 342 341 342 340 345 340 339 342 351 356 354 354 352 348 348 348 349 350 350 350 351 350 348 348 352 352 352 351
329 332 330 327 326 331 346 350 343 345 340 340 339 339 338 342 341 345 345 346 343 341 341 339 342 341 342 343 347 354 355 356 354 351 349 346 348 349 351 350 351 351 348 349 351 353 354 351 352
331 333 329 333 334 329 336 343 341 341 341 339 339 338 340 341 342 346 346 346 342 344 341 340 340 341 343 349 355 357 356 356 355 353 353 349 347 350 350 351 350 350 347 349 349 353 353 352 352
Wind_Speed
7 10 9 9 6 4 3 5 10 7 4 3 10 6 8 1 3 3 20 21 34 33 30 27 24 22 21 19 19 20 21 22 23 21 20 19 18 16 15 16 16 14 13 13 13 14 17 17 17
9 8 8 2 6 1 3 3 4 8 9 10 14 13 4 2 6 16 15 30 34 33 30 28 25 22 22 21 19 19 19 20 20 19 17 15 13 11 11 12 13 12 12 11 10 10 12 16 11
8 3 3 4 3 4 5 6 4 10 10 6 4 7 4 4 14 17 23 37 35 33 30 27 26 23 22 21 20 20 19 18 19 18 16 14 13 12 11 11 12 12 11 9 8 7 8 9 12
8 3 3 4 3 3 0 5 7 4 8 9 5 6 5 8 24 20 35 36 35 31 28 26 26 23 22 22 20 20 19 19 18 15 13 12 11 10 10 10 10 9 9 9 10 9 9 9 11
4 1 2 1 4 5 9 10 5 4 7 5 6 6 10 17 25 42 37 36 35 31 28 25 25 24 21 21 20 20 19 16 15 15 14 12 12 11 10 10 9 8 9 10 11 11 11 9 9
2 2 1 2 3 4 11 16 11 3 4 4 7 6 2 27 37 33 37 36 32 33 29 25 23 23 22 20 19 18 17 16 16 14 14 13 12 12 11 10 9 9 9 10 11 11 10 9 9
4 3 2 1 2 3 7 9 12 8 8 3 4 5 4 21 30 33 34 34 32 32 30 26 24 22 21 20 18 17 18 17 16 14 13 12 11 11 10 9 9 9 9 9 8 9 9 8 10
3 4 2 1 1 2 6 6 8 11 6 6 1 6 10 18 31 34 34 34 32 33 31 30 27 25 24 23 20 19 18 17 15 13 12 11 12 11 10 10 9 9 8 8 7 7 7 8 8
3 4 1 2 3 2 3 9 8 5 12 7 11 6 10 31 35 30 27 26 26 26 30 29 27 25 23 22 20 18 17 15 14 13 12 12 13 12 10 10 10 9 8 7 8 8 8 8 9
5 4 5 5 5 3 2 8 12 6 8 3 2 5 29 30 32 30 26 25 26 27 29 28 27 26 23 22 21 19 17 16 15 14 13 13 12 12 11 9 10 10 10 9 7 7 8 9 11
5 5 6 5 6 4 1 1 5 16 1 4 5 17 23 27 26 29 28 35 37 36 32 29 27 26 24 22 21 19 18 15 13 13 15 12 14 13 10 12 11 13 13 12 10 9 9 10 12
4 5 4 6 7 5 6 5 5 10 11 14 7 12 20 19 18 26 27 27 29 35 33 30 28 28 27 22 21 17 18 17 15 16 15 13 11 11 14 11 9 9 14 13 12 12 12 13 12
3 2 3 8 9 8 2 7 9 10 16 11 14 8 17 19 24 27 28 28 33 33 32 34 31 29 26 23 22 17 17 16 17 16 15 13 10 8 6 12 12 5 9 11 10 13 13 15 16
3 3 5 6 8 7 11 6 6 5 7 11 11 10 10 18 25 22 26 28 31 35 36 35 33 30 29 26 23 20 17 18 18 17 15 12 9 10 10 11 10 7 6 7 9 10 13 18 17
8 3 6 6 7 6 7 2 2 9 6 7 9 6 7 10 20 27 33 33 34 37 38 36 31 31 27 29 23 21 18 18 17 20 16 15 14 12 8 12 9 2 6 8 10 10 11 15 16
5 3 1 7 8 5 6 7 4 13 12 10 9 12 12 10 18 25 32 34 31 34 35 34 31 32 28 27 22 20 20 19 16 16 18 16 14 13 11 9 10 10 10 10 12 9 9 14 16
5 6 1 6 10 3 3 6 2 8 7 9 6 7 12 11 14 11 28 31 35 37 37 33 35 34 30 29 25 22 21 15 17 16 18 17 16 15 10 8 9 5 11 10 9 10 11 13 14
5 3 4 3 1 8 4 3 2 6 6 5 4 19 22 21 10 15 23 30 30 34 36 35 36 35 33 31 25 22 19 17 18 15 17 19 16 15 13 10 7 7 8 9 13 12 15 11 10
6 8 3 7 7 5 4 5 7 5 2 6 3 14 19 17 14 25 24 26 34 33 37 39 39 39 35 29 26 22 22 18 18 18 16 19 19 18 16 9 7 9 10 8 12 13 13 10 6
10 2 6 6 3 5 4 4 1 5 1 3 4 8 13 15 18 8 14 27 31 34 41 42 42 41 37 32 28 26 24 19 20 17 15 17 18 21 18 14 10 7 7 13 15 12 6 7 11
3 2 5 6 5 4 5 7 4 1 4 4 6 10 9 12 6 4 8 25 27 30 36 44 43 39 37 32 27 23 20 18 18 19 15 17 22 20 22 16 13 8 9 6 9 8 8 5 6
3 7 6 6 4 3 3 5 4 5 6 5 6 7 10 14 9 2 7 5 20 18 25 40 39 40 36 33 31 31 25 22 23 23 20 17 21 19 21 17 12 11 8 6 7 5 9 11 8
8 8 6 3 3 2 2 3 6 5 8 11 7 9 4 11 8 6 10 15 20 16 2 5 24 28 31 34 32 32 27 24 18 21 20 19 19 19 22 18 15 11 9 10 7 7 6 7 7
3 4 8 6 3 2 3 5 5 5 6 9 14 17 23 26 10 9 15 17 21 22 17 13 25 16 21 31 33 32 29 23 19 18 20 18 20 21 20 18 15 14 8 9 8 8 9 9 9
7 7 4 6 4 5 5 5 3 4 10 5 7 13 16 18 5 4 10 13 19 20 26 19 33 11 10 19 29 30 31 23 22 20 19 19 20 22 21 20 17 16 12 11 9 9 11 10 12
5 7 5 4 3 3 6 1 2 4 6 11 5 12 11 7 4 4 8 17 17 25 23 24 19 14 11 10 23 28 26 22 21 22 21 19 22 21 24 22 20 15 16 15 14 11 10 9 11
3 0 6 4 2 4 3 3 6 7 9 10 10 10 12 14 4 9 13 17 17 20 22 29 28 26 17 25 33 22 27 24 20 20 22 20 18 22 24 25 20 23 19 17 14 12 10 9 11
3 3 5 4 1 1 3 5 4 2 3 2 8 7 11 11 1 11 14 18 15 27 26 36 32 31 31 35 30 28 31 26 23 21 24 22 18 18 19 22 23 24 22 18 16 15 12 12 12
4 5 4 4 5 5 3 6 8 13 11 11 10 8 5 11 8 9 15 23 15 22 25 26 22 31 27 29 28 28 27 25 21 22 23 25 18 19 22 23 21 23 22 18 16 14 15 13 13
3 1 4 4 7 2 5 6 6 8 13 9 10 7 4 12 7 8 18 19 15 20 17 28 28 24 25 24 25 25 20 20 22 22 20 20 22 21 19 21 21 23 23 19 16 15 15 14 14
Wind_Direction
124 105 28 29 48 43 311 7 89 303 84 203 151 175 156 287 186 195 146 161 157 156 159 157 155 153 148 142 139 138 136 131 131 131 131 130 129 130 129 126 122 122 119 119 118 114 113 116 116
150 110 34 96 99 94 318 267 131 81 113 94 100 98 75 74 74 117 122 159 157 155 160 160 156 156 152 148 144 141 136 138 136 137 138 142 144 146 144 140 139 134 128 128 130 128 130 120 115
158 216 81 80 131 169 180 241 84 68 103 98 94 86 80 96 105 137 150 154 155 156 160 160 157 159 156 151 149 145 138 138 141 139 139 142 146 146 142 146 152 152 146 149 155 166 177 178 189
145 43 33 89 209 235 72 154 31 77 28 19 116 70 64 164 145 150 148 156 154 158 161 160 161 159 158 157 153 147 146 147 148 148 149 153 161 162 159 161 164 169 170 171 176 196 190 188 193
207 122 227 243 225 201 171 120 56 94 119 87 91 95 118 149 140 145 152 155 154 159 159 160 163 161 161 161 159 157 156 156 157 157 157 166 167 167 172 178 184 185 184 192 197 198 207 207 219
150 132 35 333 349 86 113 133 129 99 123 155 81 95 79 139 138 150 149 155 158 158 160 159 160 160 165 162 163 165 162 163 167 170 167 171 176 180 186 189 189 182 185 196 199 196 205 206 221
175 138 211 328 323 35 140 146 144 146 146 257 122 99 120 148 147 152 153 155 159 160 161 162 159 159 161 160 164 166 167 173 178 175 173 180 189 195 192 189 188 183 181 192 194 197 191 195 209
221 125 117 172 59 316 158 140 136 128 164 95 140 172 169 161 155 153 153 156 160 162 165 164 163 165 167 166 167 167 173 179 180 181 180 189 197 201 196 194 185 178 186 191 201 198 188 180 203
99 60 98 95 100 239 319 119 274 118 136 195 182 146 160 153 142 139 137 144 155 161 167 166 166 168 170 166 168 172 179 182 184 186 190 194 200 201 199 199 190 188 191 210 208 199 193 191 201
98 117 193 186 182 185 252 119 127 115 131 282 16 147 145 144 147 147 149 153 161 169 173 173 172 171 173 174 176 182 185 193 193 192 196 200 204 205 204 202 193 195 197 206 217 206 198 198 203
158 171 194 204 167 165 46 201 124 136 162 166 191 142 152 159 156 158 165 168 173 174 175 182 182 180 180 181 184 189 194 197 198 194 197 203 208 215 212 205 198 200 200 206 217 221 211 209 209
124 216 189 180 196 160 163 79 84 133 193 155 145 170 165 170 162 167 169 170 174 174 179 181 184 188 186 183 185 190 195 197 198 196 205 205 204 222 221 207 199 226 211 218 227 236 232 231 228
115 247 274 172 208 179 173 146 146 160 164 147 144 193 174 174 171 175 173 171 175 177 185 183 179 187 188 194 193 190 196 206 204 205 211 210 213 206 213 227 234 234 210 222 235 235 240 237 234
298 270 278 127 236 184 138 161 103 215 161 155 152 197 190 190 178 167 170 172 174 181 188 188 187 192 193 199 201 204 205 220 215 207 217 212 206 200 238 228 224 232 224 208 222 230 238 237 235
304 300 314 271 219 166 141 223 116 109 177 164 164 230 245 208 193 171 178 178 179 185 184 182 186 184 183 187 197 213 201 210 212 211 214 213 206 203 220 213 217 197 184 194 219 209 222 228 233
346 2 31 305 166 215 96 278 147 164 163 178 211 201 214 256 237 189 183 184 184 183 182 187 190 185 186 188 189 182 193 206 203 209 205 205 204 205 213 214 215 182 177 183 208 204 223 228 233
351 263 90 315 203 136 90 245 240 146 190 198 189 158 68 13 333 260 185 185 190 189 187 193 189 191 190 189 185 181 191 204 205 205 207 209 213 217 226 246 229 196 211 209 213 217 228 234 238
313 321 322 267 80 55 90 194 252 221 224 247 112 120 123 195 199 279 209 186 186 195 197 192 190 193 191 189 186 187 195 200 203 204 205 205 214 219 217 213 206 214 204 212 217 236 215 230 230
259 274 314 291 291 101 168 192 227 214 256 360 99 139 159 187 215 206 198 192 182 192 190 190 191 195 194 191 186 189 196 205 209 211 215 214 220 221 219 216 205 215 227 232 205 213 213 206 207
251 287 295 307 343 104 210 244 133 175 188 86 247 156 172 185 215 189 164 190 186 182 186 189 195 198 198 197 196 202 203 205 210 217 203 214 213 211 217 217 221 215 225 204 212 211 223 225 202
305 259 282 231 307 63 106 322 353 171 149 141 172 174 200 199 286 170 142 188 191 186 185 188 194 200 201 202 197 198 200 213 215 216 209 207 205 211 218 218 207 216 196 216 214 225 246 258 217
298 247 262 273 47 289 148 273 315 329 336 50 66 155 189 208 225 343 45 138 189 201 204 198 204 200 204 204 197 197 196 202 215 214 210 203 211 212 213 215 200 207 217 231 243 241 235 248 243
232 270 234 265 356 33 301 61 255 2 8 355 34 36 288 234 210 122 133 124 135 150 129 315 204 202 204 205 205 205 209 210 211 217 219 212 211 219 222 218 204 220 222 226 242 222 237 242 233
277 342 7 33 85 337 230 135 339 23 320 302 38 8 5 347 180 139 137 142 142 171 212 308 288 190 210 210 209 213 214 212 204 207 211 215 219 225 225 217 208 207 215 218 234 229 239 245 256
68 59 342 344 358 217 292 62 43 326 339 354 3 10 14 12 57 167 153 173 181 157 162 211 245 234 264 220 224 225 216 218 211 214 211 213 217 221 226 218 217 211 220 220 231 235 236 241 250
222 146 160 240 226 243 23 327 208 258 340 31 39 36 355 69 109 238 237 184 192 197 208 215 214 232 274 268 256 243 222 216 224 220 218 210 212 222 218 221 220 222 212 220 222 242 245 248 262
261 35 191 135 346 76 310 324 59 11 22 30 53 44 288 311 138 199 225 215 183 197 198 220 215 212 215 237 231 252 227 220 223 223 222 219 230 214 217 226 225 219 222 220 230 236 248 254 260
76 228 20 14 353 47 298 296 172 204 200 157 109 164 264 280 28 184 218 225 206 213 217 219 230 201 194 213 231 243 236 223 221 223 221 220 217 220 226 227 229 228 222 223 226 234 244 253 260
352 26 53 126 142 163 153 264 213 174 186 169 193 214 262 290 283 188 215 225 218 227 196 203 210 214 211 222 234 237 231 223 220 224 226 224 222 227 228 227 228 215 221 221 229 238 238 245 248
142 217 77 99 287 140 150 265 209 154 177 193 225 239 340 300 292 200 217 219 217 224 221 209 223 228 234 233 236 225 224 224 218 223 224 226 224 229 234 227 224 224 216 218 225 236 235 242 254